Location: Bougoura
(13.1861°N, 5.0773°W)
Time: 10:15:47
(UTC+00:00)

Daily predictions for brighter satellites

Satellite Brightness Start Highest point End
(mag) Time Altitude Azimuth Time Altitude Azimuth Time Altitude Azimuth
Cosmos 1782 Rocket 3.8 18:35:13 10° SSE 18:39:22 44° E 18:43:33 10° NNE
Cosmos 2233 Rocket 4.0 18:33:31 10° S 18:39:48 77° E 18:46:01 10° N
Cosmos 1975 2.8 18:36:30 10° S 18:40:31 64° E 18:44:33 10° NNE
Cosmos 1271 Rocket 2.7 18:36:49 10° N 18:40:47 71° E 18:44:41 10° SSE
DELTA-4 R/B 4.5 18:36:23 10° W 18:40:56 74° S 19:05:44 12° ESE
DELTA-4 R/B 4.5 18:36:22 10° W 18:40:56 74° S 19:05:46 12° ESE
DELTA-4 R/B 4.5 18:36:22 10° W 18:40:57 74° S 19:05:42 12° ESE
DELTA-4 R/B 4.5 18:36:22 10° W 18:40:57 74° S 19:05:44 12° ESE
DELTA-4 R/B 4.5 18:36:22 10° W 18:40:57 74° S 19:05:45 12° ESE
Cosmos 1908 Rocket 3.8 18:37:15 10° S 18:41:32 74° W 18:45:52 10° N
CZ-4 R/B 2.5 18:38:32 10° SE 18:42:03 26° ENE 18:45:35 10° NNE
Okean O Rocket 4.0 18:38:29 10° SSW 18:42:19 29° W 18:46:09 10° NW
Meteor 2-11 Rocket 4.5 18:36:24 10° S 18:42:27 64° E 18:48:30 10° NNE
Cosmos 1538 Rocket 4.0 18:39:25 10° N 18:44:44 78° ENE 18:50:05 10° SSE
NOAA 11 4.3 18:45:29 10° S 18:50:59 83° WSW 18:56:29 10° NNW
Cosmos 1937 Rocket 4.1 18:45:49 10° SSW 18:51:02 63° WNW 18:56:14 10° N
USA 234 3.3 18:45:34 10° NE 18:52:07 87° NW 18:58:41 10° SW
ATLAS 3B CENTAUR R/B 4.3 18:45:16 10° WNW 18:54:32 89° NNE 19:15:42 10° ESE
Cosmos 1680 Rocket 4.1 19:04:12 10° N 19:08:55 34° ENE 19:13:38 10° SE
Delta 168 4.2 19:06:50 10° NW 19:10:07 22° N 19:11:52 16° NE
ATLAS 2AS CENTAUR R/B 3.8 19:04:27 10° SSE 19:10:28 26° ESE 19:16:40 10° ENE
H-2A R/B 2.8 19:08:50 14° SE 19:12:00 26° ENE 19:16:03 10° NNE
ARGOS 4.3 19:12:07 19° E 19:13:08 20° ENE 19:16:58 10° NNE
MOS 1 Rocket 2.9 19:09:03 10° NNE 19:13:20 75° E 19:17:35 10° S
TIMED 4.4 19:10:29 10° N 19:14:49 72° ENE 19:19:08 10° SSE
Shenzhou-11 Module 1.4 19:13:23 10° SW 19:15:30 62° NW 19:16:02 41° NNE
Cosmos 1842 3.6 19:12:13 10° NNE 19:15:50 38° E 19:19:26 10° SSE
Sich 1 Rocket 3.5 19:13:05 10° S 19:17:30 81° E 19:21:58 10° N
Iridium 4 Rocket 4.1 19:13:53 10° SSW 19:18:12 52° W 19:22:53 10° NNW
Cosmos 1174 4.2 19:15:46 10° SSW 19:19:29 67° WNW 19:24:10 10° NNE
Cosmos 1975 Rocket 3.7 19:17:09 10° NNE 19:20:59 31° E 19:21:55 28° ESE
Cosmos 1844 3.9 19:18:37 10° S 19:24:05 46° ESE 19:29:31 10° NNE
Ariane H10+ 4.1 19:25:45 10° SSW 19:26:57 12° S 19:26:57 12° S
Cosmos 158 Rocket 3.8 19:24:12 10° N 19:29:18 67° ENE 19:34:01 11° SSE
Cosmos 2285 Rocket 4.4 19:24:29 10° SSE 19:30:13 38° E 19:35:57 10° NE
Cosmos 1513 Rocket 4.4 19:26:04 10° S 19:32:26 78° E 19:38:42 10° N
CZ-2C R/B 2.7 19:28:59 10° NNE 19:34:27 57° ESE 19:39:57 10° S
CZ-2C R/B 2.8 19:30:17 10° SSE 19:35:12 75° ENE 19:40:22 10° N
Milstar 3 Cent rocket 3.7 19:28:11 10° W 19:35:48 37° NNW 19:39:33 16° NE
Cosmos 1844 Rocket 2.5 19:30:32 10° SSW 19:36:04 83° ESE 19:41:38 10° NNE
SL-16 R/B 3.6 19:30:55 10° NW 19:36:07 39° WSW 19:41:20 10° S
ARIANE 5 R/B 3.2 19:25:53 10° WSW 19:36:31 35° SSW 19:37:49 27° SSE
Okean 2 Rocket 3.0 19:33:06 10° S 19:37:37 85° E 19:42:07 10° N
SJ-11-01 4.2 19:35:36 16° SSE 19:39:23 66° ENE 19:44:03 10° N
Okean-O 4.1 19:36:30 10° SSW 19:40:34 37° W 19:44:39 10° NNW
Cosmos 1464 Rocket 3.9 19:34:31 10° S 19:40:39 89° E 19:46:46 10° N
Delta 7925 Rocket 4.4 19:41:31 10° W 19:46:13 42° SSW 19:48:33 28° SSE
Cosmos 1900 4.3 19:44:15 10° NNW 19:49:18 59° ENE 19:49:33 58° E
GPS 2-04 Rocket1 4.2 19:46:19 10° NNW 19:49:06 26° N 19:49:06 26° N
Cosmos 1300 Rocket 3.9 19:46:21 10° SSW 19:50:39 63° W 19:54:59 10° N
Ariane H10-3 4.4 12:58:25 10° WSW 19:53:47 65° SSW 19:57:47 37° SE
GPS 2-17 Rocket1 3.0 19:49:33 10° WSW 19:54:16 78° NNW 19:54:35 73° NNE
SEDSat Delta rocket 4.5 19:50:06 10° NW 19:53:56 26° NNE 19:53:56 26° NNE
CSL-04 Debris 4.4 19:50:08 10° S 19:55:30 69° WSW 20:00:51 10° NNW
YAOGAN 1 4.2 19:51:54 10° SSW 19:55:47 33° W 19:59:41 10° NW
Cosmos 1943 3.6 19:56:40 10° N 20:01:03 46° NNE 20:01:03 46° NNE
Ariane H10 3.8 19:50:57 10° W 20:03:34 41° SSW 20:05:10 35° SSE
CSL-04 Rocket 4.2 19:59:54 10° S 20:05:07 57° WSW 20:10:24 10° NNW
ARIANE 5 R/B 3.4 19:14:01 10° W 20:05:17 60° S 20:07:26 45° SE
ASTRO E2 4.3 20:07:44 10° WNW 20:10:20 33° WSW 20:10:20 33° WSW
Centaur AC-119 4.4 20:08:35 10° WSW 20:10:01 19° W 20:10:01 19° W
Intelsat 5-3 Rocket 4.1 20:14:45 10° WNW 20:20:17 78° SSW 20:22:39 56° SE
Cosmos 1603 3.9 20:16:01 10° NNW 20:21:00 67° NW 20:21:00 67° NW
Intelsat 5-1 Rocket 3.5 20:04:50 10° WSW 20:22:57 82° NNW 20:24:10 67° NE
H-10 deb 4.3 19:37:34 10° WSW 20:30:03 51° S 20:31:20 48° SSE
NOSS 3-4 (A) 4.2 20:33:30 10° SW 20:39:07 46° WNW 20:39:17 45° WNW
NOSS 3-4 (C) 4.1 20:33:37 10° SW 20:39:13 46° WNW 20:39:13 46° WNW
H-2A R/B 4.4 20:49:28 15° SW 20:51:14 18° W 20:54:29 10° WNW
ATLAS 2AS CENTAUR R/B 3.9 20:53:52 10° SW 21:01:03 44° WNW 21:04:44 28° NNW
